Regional Weather Roundup
Issued by NWS

Home | Current Version | Previous Version | Graphics & Text | Print | Product List | Glossary On
Versions: 1 2 3 4 5 6 7 8 9 10 11 12 13 14 15 16 17 18 19 20 21 22 23 24 25 26 27 28 29 30 31 32 33 34 35 36 37 38 39 40 41 42 43 44 45 46 47 48 49 50
437
ASUS43 KMKX 261700
RWRWI

WISCONSIN REGIONAL WEATHER ROUNDUP
NATIONAL WEATHER SERVICE MILWAUKEE/SULLIVAN WI
1200 PM CDT WED JUL 26 2017

NOTE: "FAIR" INDICATES FEW OR NO CLOUDS BELOW 12,000 FEET WITH NO
SIGNIFICANT WEATHER AND/OR OBSTRUCTIONS TO VISIBILITY.

WIZ001-002-006>008-014>016-023>028-261800-
NORTHWEST WISCONSIN

CITY           SKY/WX    TMP DP  RH WIND       PRES   REMARKS
SUPERIOR ARPT  NOT AVBL
ASHLAND          N/A     78  63  59 W6        29.98S HX  80
HAYWARD        CLOUDY    74  64  71 W5        30.02S
SIREN          CLOUDY    74  66  77 NW5       30.02F
CUMBERLAND     CLOUDY    72  64  78 NW9       30.02S
RICE LAKE      CLOUDY    72  69  90 NW5       30.03S
CHETEK           N/A     72  71  97 CALM      30.01S
LADYSMITH      LGT RAIN  71  69  94 SW3       30.04R
EAU CLAIRE     LGT RAIN  72  70  93 W6        30.00F
MENOMONIE      DRIZZLE   72  70  94 SW6       30.02S
NEW RICHMOND   CLOUDY    73  71  95 W3        30.02S
OSCEOLA        CLOUDY    75  74  99 W5        30.05R
$$

WIZ003>005-009-010-017-018-261800-
NORTH CENTRAL WISCONSIN

CITY           SKY/WX    TMP DP  RH WIND       PRES   REMARKS
MANITOWISH WTR CLOUDY    73  67  81 W6        30.00R
ARBOR VITAE    CLOUDY    72  70  93 W9        30.00R
WOODRUFF       CLOUDY    72  70  93 W9        30.00R
RHINELANDER    CLOUDY    70  69  97 W9        30.01R
EAGLE RIVER    CLOUDY    72  69  91 W9        29.99S
LAND O LAKES   PTSUNNY   75  66  72 CALM      30.00S
PHILLIPS       CLOUDY    71  69  96 W3        30.01F
TOMAHAWK       LGT RAIN  69  67  93 W5        30.02R
MEDFORD        LGT RAIN  69  67  94 N8        30.00F
MERRILL        NOT AVBL
$$

WIZ029-030-035-036-043>047-261800-
CENTRAL WISCONSIN

CITY           SKY/WX    TMP DP  RH WIND       PRES   REMARKS
WAUSAU         LGT RAIN  71  69  93 N7        29.97F
MOSINEE        LGT RAIN  72  70  94 W3        30.02F
MARSHFIELD     MOSUNNY   72  68  87 SW7       30.02R
STEVENS POINT  CLOUDY    72  70  94 SW7       30.02S
WAUPACA        CLOUDY    74  71  90 S6        30.02R
WAUTOMA        CLOUDY    78  71  79 SW6       30.02S HX  80
WISC RAPIDS    CLOUDY    76  71  85 SW5       30.02S
CAMP DOUGLAS   NOT AVBL
$$

WIZ011>013-019>022-031-037>040-048>050-261800-
NORTHEAST WISCONSIN

CITY           SKY/WX    TMP DP  RH WIND       PRES   REMARKS
ANTIGO         LGT RAIN  69  69  99 W7        30.00S
SHAWANO        CLOUDY    73  69  88 S6        29.99S
OCONTO         CLOUDY    68  67  96 SW9       29.98R
STURGEON BAY     N/A     70  68  93 SW6       29.97F
GREEN BAY      CLOUDY    71  70  96 SW8       30.00F
MANITOWOC      NOT AVBL
APPLETON       PTSUNNY   72  70  94 S9        30.00F
CLINTONVILLE   CLOUDY   N/A N/A N/A SW9       30.00S
OSHKOSH        CLOUDY    76  69  79 SW6       30.01F
$$

WIZ032>034-041-042-053>061-261800-
SOUTHWEST WISCONSIN

CITY           SKY/WX    TMP DP  RH WIND       PRES   REMARKS
LA CROSSE      LGT RAIN  79  71  76 VRB6      30.00S HX  82
SPARTA         MOSUNNY   78  69  73 W6        30.02S HX  80
VIROQUA        CLOUDY    77  72  84 CALM      30.04S
BOSCOBEL       CLOUDY    80  70  71 S3        30.02F HX  83
PRAIRIE DU CHI CLOUDY    77  68  74 SE3       30.02F
PLATTEVILLE    CLOUDY    76  74  94 CALM      30.06S
$$

WIZ056-057-062-063-064-067-068-261800-
SOUTH CENTRAL WISCONSIN

CITY           SKY/WX    TMP DP  RH WIND       PRES   REMARKS
REEDSBURG      CLOUDY    76  73  90 S8        30.03S
BARABOO/DELLS  CLOUDY    77  67  72 SW8       30.03F
LONE ROCK      CLOUDY    79  72  79 SW6       30.02F HX  82
MINERAL POINT  CLOUDY    77  73  88 CALM      30.07R
MADISON        CLOUDY    77  70  79 S5        30.04F
MIDDLETON      CLOUDY    77  70  80 CALM      30.06S
WATERTOWN      CLOUDY    76  72  86 W7        30.06S
MONROE         CLOUDY    77  70  78 SW7       30.06R
JANESVILLE     CLOUDY    82  72  69 SW8       30.04S HX  87
$$

WIZ051-052-058>065-066-070>072-261800-
SOUTHEAST WISCONSIN

CITY           SKY/WX    TMP DP  RH WIND       PRES   REMARKS
MILWAUKEE      CLOUDY    81  69  67 SW12      30.04S HX  84
WAUKESHA       SUNNY     75  66  73 SW9       30.06S
MILWAUKEE/TIMM MOSUNNY   79  66  65 SW12G18   30.04F HX  81
RACINE         PTSUNNY   81  71  71 W10       30.06S HX  85
KENOSHA        PTSUNNY   82  71  69 SW9       30.05F HX  86
FOND DU LAC    CLOUDY    75  66  73 SW8       30.03F
SHEBOYGAN      CLOUDY    75  70  84 CALM      30.03F
WEST BEND      CLOUDY    75  68  78 SW8       30.05S
JUNEAU         CLOUDY    74  68  82 SW8       30.06S
$$

LSZ147-162-261800-
LAKE SUPERIOR

STATION/POSITION TIME  TEMP    WIND        PRES    WAVE
                       AIR SEA DIR/SP/G            HT/PER
                 (UTC) (F)     (DEG/KT/KT) (MB)    (FT/S)
W MID LAKE BUOY  1550   57 51  260/  8/  8 1013.9F   1
DEVILS ISLAND    1600   63     220/  6/  9 1014.8R
SAXON HARBOR     1630   73      CALM  /  2 1014.9S
$$

LMZ867-665-643>646-261800-
LAKE MICHIGAN

STATION/POSITION TIME  TEMP    WIND        PRES    WAVE
                       AIR SEA DIR/SP/G            HT/PER
                 (UTC) (F)     (DEG/KT/KT) (MB)    (FT/S)
CHAMBERS ISLAND  1640   69     120/  4/  7 1013.2F
S GREEN BAY BUOY 1630   69 71  210/  8/ 14 1014.7F
N MID LAKE BUOY  1550   67 65  210/ 17/ 19 1015.6R   5/ 6
NORTHPORT PIER   1640   69     200/  3/  7 1014.9F
KEWAUNEE LAKESHO 1630   70     250/  7/  9 1014.9R
SHEBOYGAN LAKESH 1600   71     250/  4/  6 1016.9R
PORT WASHINGTON  1630   81     250/  7/ 12 1017.9S
ATWATER BUOY     1509   75 68  210/ 10/ 12 1017.4F
MILWAUKEE LAKESH 1640   79     260/  9/ 12   N/A
S MID LAKE BUOY  1550   71 70  190/ 12/ 14 1018.0F   3/ 5
KENOSHA   LAKESH 1600   80     200/  8/ 11 1017.3
$$

TC  - TEMPERATURE IN CELSIUS
VSB - VISIBILITY IN STATUTE MILES
WCI - WIND CHILL INDEX
HX  - HEAT INDEX





USA.gov is the U.S. government's official web portal to all federal, state and local government web resources and services.